Regional Weather Roundup
Issued by NWS

Home | Current Version | Previous Version | Graphics & Text | Print | Product List | Glossary On
Versions: 1 2 3 4 5 6 7 8 9 10 11 12 13 14 15 16 17 18 19 20 21 22 23 24 25 26 27 28 29 30 31 32 33 34 35 36 37 38 39 40 41 42 43 44 45 46 47 48 49 50
414
ASUS43 KOAX 281710
RWRNE

WEATHER ROUNDUP FOR NEBRASKA
NATIONAL WEATHER SERVICE OMAHA NE
1200 PM CDT SUN MAY 28 2017

NOTES: SATELLITE DATA IS BEING USED TO AUGMENT CLOUD COVER ABOVE
       12000 FEET.
       "FAIR" INDICATES FEW OR NO CLOUDS BELOW 12,000 FEET WITH NO
       SIGNIFICANT WEATHER AND/OR OBSTRUCTIONS TO VISIBILITY.

  * THESE STATIONS DO NOT REPORT WEATHER SUCH AS RAIN...SNOW OR FOG.

NEZ001>004-019>022-054>056-281800-
NEBRASKA PANHANDLE

CITY           SKY/WX    TMP DP  RH WIND       PRES   REMARKS
SCOTTSBLUFF    SUNNY     70  44  39 W14G20    30.18S
ALLIANCE       SUNNY     69  44  40 N15       30.14R
CHADRON        CLOUDY    65  47  52 W9        30.13F
GORDON         PTSUNNY   65  45  46 N10G17    30.12R
KIMBALL        MOSUNNY   67  36  31 N13G22    30.23S
SIDNEY         SUNNY     67  42  40 NW17G26   30.20R
$$

NEZ057>060-069>072-079>082-281800-
SOUTHWEST NEBRASKA

CITY           SKY/WX    TMP DP  RH WIND       PRES   REMARKS
NORTH PLATTE   MOSUNNY   74  46  36 NW17G25   30.07F
IMPERIAL       SUNNY     73  39  29 NW17G24   30.14S
LEXINGTON      SUNNY     73  49  42 W15G22    30.06S
MCCOOK         SUNNY     76  42  29 W14       30.09F
OGALLALA       SUNNY     73  45  36 NW16G23   30.12S
$$

NEZ005>010-023>029-035>040-094-281800-
NORTH CENTRAL NEBRASKA

CITY           SKY/WX    TMP DP  RH WIND       PRES   REMARKS
VALENTINE      SUNNY     72  42  34 N16G23    30.04R
AINSWORTH      SUNNY     69  43  39 N17G23    30.04R
BROKEN BOW     SUNNY     76  44  32 NW14G29   30.03S
O`NEILL        SUNNY     70  39  32 NW16G24   29.99S
ORD            SUNNY     74  48  39 W17       29.98S
THEDFORD       MOSUNNY   73  45  36 NW17G25   30.07R
$$

NEZ041-046>049-061>064-073>077-083>087-281800-
SOUTH CENTRAL NEBRASKA

CITY           SKY/WX    TMP DP  RH WIND       PRES   REMARKS
GRAND ISLAND   SUNNY     76  46  34 NW16      30.00S
AURORA         SUNNY     76  39  26 W14       29.99S
HASTINGS       SUNNY     76  41  28 NW16G22   30.02F
HEBRON         SUNNY     75  48  37 NW8       30.01S
HOLDREGE       SUNNY     74  37  25 NW17G24   30.05S
KEARNEY *      SUNNY     75  39  27 NW16G22   30.04R
YORK           SUNNY     75  41  29 NW17G24   29.98S
$$

NEZ011>018-030>034-042>045-281800-
NORTHEAST NEBRASKA

CITY           SKY/WX    TMP DP  RH WIND       PRES   REMARKS
NORFOLK        MOSUNNY   75  47  36 NW17      29.91S
ALBION         SUNNY     75  45  33 NW20G26   29.95S
BLAIR          SUNNY     75  47  36 W8        29.92S
FREMONT        SUNNY     77  45  31 W17       29.92S
TEKAMAH        SUNNY     79  45  29 W13G26    29.88F
WAYNE          PTSUNNY   74  46  37 NW13G26   29.91R
$$

NEZ050>053-065>068-078-088>093-281800-
SOUTHEAST NEBRASKA

CITY           SKY/WX    TMP DP  RH WIND       PRES   REMARKS
LINCOLN        SUNNY     77  45  32 W8        29.96S
OMAHA EPPLEY   MOSUNNY   76  50  40 SW13      29.91S
BEATRICE       SUNNY     75  50  41 NW8       29.98S
FALLS CITY     SUNNY     74  55  51 VRB6      29.95R
NEBRASKA CITY  SUNNY     74  45  35 NW7       29.95S
PLATTSMOUTH    SUNNY     74  50  42 W9        29.94S
$$

NEZ044-045-051>053-067-281800-
OMAHA AREA

CITY           SKY/WX    TMP DP  RH WIND       PRES   REMARKS
OMAHA EPPLEY   MOSUNNY   76  50  40 SW13      29.91S
BLAIR          SUNNY     75  47  36 W8        29.92S
FREMONT        SUNNY     77  45  31 W17       29.92S
MILLARD        SUNNY     75  53  45 W6        29.93S
OFFUTT AFB     SUNNY     74  51  43 SW5       29.92R
PLATTSMOUTH    SUNNY     74  50  42 W9        29.94S
WAHOO          FAIR      78  42  27 NW15      29.93S
$$




USA.gov is the U.S. government's official web portal to all federal, state and local government web resources and services.